This is the latest recevied weather packets stored in our database for station/object KB5DPX. If no packets are shown the sender has not sent any weather packets the latest 10 day(s).
| Time | Temp. | Humidity | Pressure | Rain* | Wind** | Luminosity | Snow |
|---|---|---|---|---|---|---|---|
| 1778161646 | 4.44° C | 81% | 1013 hPa | 0 mm | - | 250 W/m² | - |
| 1778161359 | 4.44° C | 80% | 1013 hPa | 0 mm | - | 248 W/m² | - |
| 1778161058 | 4.44° C | 82% | 1013 hPa | 0 mm | - | 232 W/m² | - |
| 1778160759 | 3.89° C | 83% | 1013 hPa | 0 mm | - | 236 W/m² | - |
| 1778160456 | 3.89° C | 85% | 1013 hPa | 0 mm | - | 229 W/m² | - |
| 1778160159 | 3.89° C | 86% | 1013 hPa | 0 mm | - | 220 W/m² | - |
| 1778159843 | 3.33° C | 88% | 1013 hPa | 0 mm | - | 230 W/m² | - |
| 1778159557 | 3.33° C | 88% | 1013 hPa | 0 mm | - | 221 W/m² | - |
| 1778159259 | 2.78° C | 88% | 1013 hPa | 0 mm | - | 207 W/m² | - |
| 1778158957 | 2.78° C | 89% | 1013 hPa | 0 mm | - | 192 W/m² | - |
| 1778158652 | 2.22° C | 89% | 1013 hPa | 0 mm | - | 176 W/m² | - |
| 1778158357 | 2.22° C | 89% | 1012.9 hPa | 0 mm | - | 156 W/m² | - |
| 1778158060 | 2.22° C | 89% | 1012.9 hPa | 0 mm | - | 144 W/m² | - |
| 1778157743 | 1.67° C | 89% | 1012.9 hPa | 0 mm | - | 127 W/m² | - |
| 1778157455 | 1.67° C | 89% | 1012.9 hPa | 0 mm | - | 123 W/m² | - |
| 1778157140 | 1.67° C | 89% | 1012.9 hPa | 0 mm | - | 109 W/m² | - |
| 1778156860 | 1.67° C | 89% | 1012.9 hPa | 0 mm | - | 109 W/m² | - |
| 1778156563 | 1.11° C | 89% | 1012.9 hPa | 0 mm | - | 105 W/m² | - |
| 1778156265 | 1.11° C | 89% | 1012.9 hPa | 0 mm | - | 102 W/m² | - |
| 1778155950 | 1.11° C | 89% | 1012.8 hPa | 0 mm | - | 104 W/m² | - |
| 1778155662 | 0.56° C | 89% | 1012.9 hPa | 0 mm | - | 102 W/m² | - |
| 1778155347 | 0.56° C | 88% | 1012.9 hPa | 0 mm | - | 98 W/m² | - |
| 1778155050 | 0.56° C | 88% | 1012.9 hPa | 0 mm | - | 91 W/m² | - |
| 1778154765 | 0.56° C | 87% | 1012.8 hPa | 0 mm | - | 88 W/m² | - |
| 1778154442 | 0° C | 86% | 1012.7 hPa | 0 mm | - | 91 W/m² | - |
* Rain latest hour (hover to see other rain measurements)
** Current wind speed in m/s (hover to see current wind gust speed)